Location: Pic du Midi - T1M
(42.9366°N, 0.1426°E)
Time: 12:52:00
(UTC+01:00)

DUCHIFAT 1 - Pass Details

Date: 19 September 2021
Orbit: 583 x 603 km, 98.0° (Epoch: 18 October)

Event Time Altitude Azimuth Distance (km) Brightness Sun altitude
Rises 02:58:15 0° 14° (NNE) 2,839 ? -37.5°
Reaches altitude 10° 03:00:26 10° 15° (NNE) 1,929 ? -37.2°
Enters shadow 03:00:40 12° 15° (NNE) 1,831 ? -37.2°
